| time (UTC) | temp F | wind direction | speed MPH | gust MPH | rain 1hr in | rain 24hr in | rain mn in | humidity % | barometer mb |
| 20260903073022 | 84 | 119 | 1.0 | 3.0 | 0.00 | 0.51 | 0.00 | 82 | 1012.4 |
| 20260903072012 | 84 | 107 | 1.0 | 4.0 | 0.00 | 0.51 | 0.00 | 81 | 1012.5 |
| 20260903065846 | 84 | 119 | 2.0 | 7.0 | 0.00 | 0.51 | 0.00 | 81 | 1012.5 |
| 20260903064833 | 84 | 132 | 2.0 | 6.0 | 0.00 | 0.51 | 0.00 | 81 | 1012.7 |
| 20260903063832 | 83 | 132 | 2.0 | 8.0 | 0.00 | 0.51 | 0.00 | 82 | 1012.9 |
| 20260903062818 | 83 | 106 | 3.0 | 8.0 | 0.00 | 0.51 | 0.00 | 83 | 1013.1 |
| 20260903061759 | 84 | 115 | 3.0 | 6.0 | 0.00 | 0.51 | 0.00 | 84 | 1013.3 |
| 20260903060724 | 84 | 144 | 2.0 | 6.0 | 0.00 | 0.51 | 0.00 | 83 | 1013.4 |
| 20260903055657 | 84 | 146 | 1.0 | 6.0 | 0.00 | 0.51 | 0.00 | 83 | 1013.6 |
| 20260903054712 | 84 | 111 | 2.0 | 6.0 | 0.00 | 0.51 | 0.00 | 83 | 1013.6 |
| 20260903053707 | 84 | 138 | 1.0 | 7.0 | 0.00 | 0.51 | 0.00 | 84 | 1013.8 |
| 20260903051523 | 84 | 124 | 2.0 | 6.0 | 0.00 | 0.51 | 0.00 | 83 | 1013.9 |
| 20260903050448 | 84 | 158 | 3.0 | 7.0 | 0.00 | 0.51 | 0.00 | 82 | 1014.0 |
| 20260903044311 | 84 | 140 | 4.0 | 8.0 | 0.00 | 0.51 | 0.00 | 82 | 1014.2 |
| 20260903043240 | 84 | 142 | 3.0 | 7.0 | 0.00 | 0.51 | 0.00 | 82 | 1014.3 |
| 20260903041135 | 84 | 116 | 3.0 | 9.0 | 0.00 | 0.51 | 0.00 | 82 | 1014.6 |
| 20260903033924 | 84 | 93 | 3.0 | 7.0 | 0.00 | 0.51 | 0.51 | 82 | 1014.7 |
| 20260903032858 | 84 | 76 | 2.0 | 7.0 | 0.00 | 0.51 | 0.51 | 82 | 1014.7 |
| 20260903030642 | 84 | 142 | 4.0 | 9.0 | 0.00 | 0.51 | 0.51 | 81 | 1014.7 |
| 20260903025658 | 84 | 118 | 4.0 | 9.0 | 0.00 | 0.51 | 0.51 | 80 | 1014.7 |
| 20260903024701 | 84 | 140 | 3.0 | 8.0 | 0.00 | 0.51 | 0.51 | 82 | 1014.6 |
| 20260903023700 | 84 | 103 | 3.0 | 7.0 | 0.00 | 0.51 | 0.51 | 82 | 1014.7 |
| 20260903021538 | 84 | 88 | 2.0 | 7.0 | 0.00 | 0.51 | 0.51 | 82 | 1014.7 |
| 20260903020557 | 84 | 0 | 2.0 | 5.0 | 0.00 | 0.51 | 0.51 | 82 | 1014.6 |
| 20260903015521 | 84 | 106 | 2.0 | 6.0 | 0.00 | 0.51 | 0.51 | 82 | 1014.6 |
| 20260903012230 | 84 | 107 | 3.0 | 8.0 | 0.00 | 0.51 | 0.51 | 81 | 1014.3 |
| 20260903011238 | 84 | 73 | 2.0 | 8.0 | 0.00 | 0.51 | 0.51 | 80 | 1014.3 |
| 20260903010210 | 84 | 96 | 3.0 | 9.0 | 0.00 | 0.51 | 0.51 | 80 | 1014.2 |
| 20260903005138 | 84 | 77 | 3.0 | 9.0 | 0.00 | 0.51 | 0.51 | 80 | 1014.0 |
| 20260903004138 | 84 | 101 | 4.0 | 11.0 | 0.00 | 0.51 | 0.51 | 80 | 1014.0 |
| 20260903003145 | 84 | 51 | 4.0 | 11.0 | 0.00 | 0.51 | 0.51 | 81 | 1013.9 |
| 20260903001033 | 84 | 117 | 3.0 | 8.0 | 0.00 | 0.51 | 0.51 | 81 | 1013.7 |
| 20260903000040 | 84 | 96 | 2.0 | 6.0 | 0.00 | 0.51 | 0.51 | 80 | 1013.8 |
| 20260902232805 | 85 | 110 | 4.0 | 7.0 | 0.00 | 0.51 | 0.51 | 81 | 1013.5 |
| 20260902231800 | 85 | 92 | 3.0 | 7.0 | 0.00 | 0.51 | 0.51 | 80 | 1013.5 |
| 20260902230726 | 85 | 97 | 3.0 | 7.0 | 0.00 | 0.51 | 0.51 | 80 | 1013.3 |
| 20260902225705 | 85 | 117 | 4.0 | 8.0 | 0.00 | 0.51 | 0.51 | 80 | 1013.2 |
| 20260902224649 | 85 | 83 | 3.0 | 9.0 | 0.00 | 0.51 | 0.51 | 80 | 1013.1 |
| 20260902223657 | 85 | 78 | 3.0 | 9.0 | 0.00 | 0.51 | 0.51 | 81 | 1013.2 |
| 20260902222629 | 85 | 96 | 4.0 | 7.0 | 0.00 | 0.51 | 0.51 | 81 | 1013.1 |
| 20260902220521 | 85 | 87 | 4.0 | 8.0 | 0.00 | 0.51 | 0.51 | 81 | 1013.2 |
| 20260902214409 | 85 | 94 | 3.0 | 7.0 | 0.00 | 0.51 | 0.51 | 81 | 1013.5 |
| 20260902212241 | 85 | 89 | 3.0 | 7.0 | 0.00 | 0.51 | 0.51 | 81 | 1013.4 |
| 20260902211235 | 85 | 109 | 3.0 | 8.0 | 0.00 | 0.51 | 0.51 | 81 | 1013.3 |
| 20260902210213 | 85 | 104 | 3.0 | 9.0 | 0.00 | 0.51 | 0.51 | 81 | 1013.3 |
| 20260902202917 | 85 | 111 | 4.0 | 8.0 | 0.00 | 0.51 | 0.51 | 81 | 1013.6 |
| 20260902201930 | 86 | 122 | 4.0 | 8.0 | 0.00 | 0.51 | 0.51 | 79 | 1013.6 |
| 20260902194616 | 85 | 123 | 5.0 | 8.0 | 0.00 | 0.51 | 0.51 | 78 | 1013.7 |
| 20260902193600 | 86 | 63 | 4.0 | 8.0 | 0.00 | 0.51 | 0.51 | 78 | 1013.9 |
| 20260902192538 | 85 | 131 | 3.0 | 7.0 | 0.00 | 0.51 | 0.51 | 78 | 1014.1 |
| 20260902191544 | 85 | 69 | 3.0 | 8.0 | 0.00 | 0.51 | 0.51 | 79 | 1014.2 |
| 20260902190550 | 85 | 68 | 4.0 | 8.0 | 0.00 | 0.51 | 0.51 | 79 | 1014.4 |
| 20260902185556 | 85 | 67 | 4.0 | 8.0 | 0.00 | 0.51 | 0.51 | 78 | 1014.4 |
| 20260902184613 | 85 | 91 | 4.0 | 8.0 | 0.00 | 0.51 | 0.51 | 77 | 1014.4 |
| 20260902183609 | 85 | 126 | 3.0 | 9.0 | 0.00 | 0.51 | 0.51 | 79 | 1014.4 |
| 20260902182544 | 85 | 86 | 4.0 | 9.0 | 0.00 | 0.51 | 0.51 | 79 | 1014.4 |
| 20260902181550 | 85 | 111 | 5.0 | 9.0 | 0.00 | 0.51 | 0.51 | 79 | 1014.4 |
| 20260902180602 | 85 | 134 | 4.0 | 8.0 | 0.00 | 0.51 | 0.51 | 79 | 1014.6 |
| 20260902175543 | 86 | 102 | 2.0 | 8.0 | 0.00 | 0.51 | 0.51 | 79 | 1014.7 |
| 20260902174513 | 86 | 117 | 3.0 | 8.0 | 0.00 | 0.51 | 0.51 | 79 | 1014.8 |
| 20260902173442 | 86 | 108 | 3.0 | 8.0 | 0.00 | 0.51 | 0.51 | 78 | 1014.8 |
| 20260902172449 | 86 | 100 | 4.0 | 8.0 | 0.00 | 0.51 | 0.51 | 78 | 1014.9 |
| 20260902170300 | 86 | 109 | 4.0 | 9.0 | 0.00 | 0.51 | 0.51 | 78 | 1015.0 |
| 20260902165222 | 86 | 125 | 4.0 | 9.0 | 0.00 | 0.51 | 0.51 | 78 | 1015.3 |
| 20260902164218 | 86 | 84 | 4.0 | 8.0 | 0.00 | 0.51 | 0.51 | 79 | 1015.4 |
| 20260902163215 | 86 | 64 | 4.0 | 8.0 | 0.00 | 0.51 | 0.51 | 78 | 1015.6 |
| 20260902162155 | 86 | 51 | 3.0 | 8.0 | 0.00 | 0.51 | 0.51 | 78 | 1015.7 |
| 20260902161122 | 86 | 88 | 3.0 | 7.0 | 0.00 | 0.51 | 0.51 | 79 | 1015.6 |
| 20260902160143 | 86 | 107 | 3.0 | 7.0 | 0.00 | 0.51 | 0.51 | 79 | 1015.8 |
| 20260902155203 | 86 | 89 | 3.0 | 7.0 | 0.00 | 0.51 | 0.51 | 80 | 1015.8 |
| 20260902151839 | 85 | 46 | 2.0 | 7.0 | 0.00 | 0.51 | 0.51 | 81 | 1015.8 |
| 20260902150825 | 85 | 59 | 3.0 | 7.0 | 0.00 | 0.51 | 0.51 | 81 | 1015.7 |
| 20260902145756 | 85 | 55 | 3.0 | 7.0 | 0.00 | 0.51 | 0.51 | 80 | 1015.7 |
| 20260902144727 | 86 | 19 | 3.0 | 7.0 | 0.00 | 0.51 | 0.51 | 79 | 1015.7 |
| 20260902143740 | 86 | 30 | 3.0 | 7.0 | 0.00 | 0.51 | 0.51 | 79 | 1015.6 |
| 20260902141545 | 86 | 70 | 3.0 | 7.0 | 0.00 | 0.51 | 0.51 | 79 | 1015.7 |
| 20260902140516 | 85 | 45 | 2.0 | 7.0 | 0.00 | 0.51 | 0.51 | 79 | 1015.7 |
| 20260902135501 | 85 | 333 | 4.0 | 8.0 | 0.00 | 0.51 | 0.51 | 80 | 1015.5 |
| 20260902134500 | 85 | 0 | 3.0 | 8.0 | 0.00 | 0.51 | 0.51 | 81 | 1015.6 |
| 20260902133457 | 84 | 39 | 2.0 | 5.0 | 0.00 | 0.51 | 0.51 | 83 | 1015.4 |
| 20260902132503 | 84 | 0 | 2.0 | 4.0 | 0.00 | 0.51 | 0.51 | 84 | 1015.5 |
| 20260902131427 | 83 | 24 | 2.0 | 4.0 | 0.00 | 0.51 | 0.51 | 86 | 1015.4 |
| 20260902124139 | 83 | 348 | 3.0 | 5.0 | 0.00 | 0.51 | 0.51 | 88 | 1015.3 |
| 20260902123112 | 82 | 355 | 3.0 | 7.0 | 0.00 | 0.51 | 0.51 | 89 | 1015.2 |
| 20260902122044 | 82 | 334 | 3.0 | 5.0 | 0.00 | 0.51 | 0.51 | 89 | 1015.1 |
| 20260902121026 | 82 | 315 | 3.0 | 4.0 | 0.00 | 0.51 | 0.51 | 89 | 1015.2 |
| 20260902120042 | 82 | 327 | 0.0 | 3.0 | 0.00 | 0.51 | 0.51 | 89 | 1015.2 |
| 20260902115007 | 81 | 350 | 0.0 | 0.0 | 0.00 | 0.51 | 0.51 | 89 | 1015.2 |
| 20260902114007 | 81 | 332 | 0.0 | 0.0 | 0.00 | 0.51 | 0.51 | 88 | 1015.0 |
| 20260902112953 | 81 | 331 | 0.0 | 0.0 | 0.00 | 0.51 | 0.51 | 88 | 1014.8 |
| 20260902111928 | 81 | 342 | 0.0 | 0.0 | 0.00 | 0.51 | 0.51 | 88 | 1014.9 |
| 20260902110901 | 81 | 355 | 0.0 | 0.0 | 0.00 | 0.51 | 0.51 | 88 | 1014.7 |
| 20260902105844 | 81 | 305 | 0.0 | 0.0 | 0.00 | 0.51 | 0.51 | 87 | 1014.5 |
| 20260902104900 | 81 | 315 | 0.0 | 2.0 | 0.00 | 0.51 | 0.51 | 87 | 1014.5 |
| 20260902103846 | 81 | 16 | 0.0 | 0.0 | 0.00 | 0.51 | 0.51 | 87 | 1014.3 |
| 20260902102844 | 81 | 16 | 0.0 | 0.0 | 0.00 | 0.51 | 0.51 | 86 | 1014.4 |
| 20260902101813 | 81 | 16 | 0.0 | 0.0 | 0.00 | 0.51 | 0.51 | 85 | 1014.2 |
| 20260902100821 | 82 | 10 | 0.0 | 0.0 | 0.00 | 0.51 | 0.51 | 85 | 1014.2 |
| 20260902095747 | 82 | 344 | 1.0 | 6.0 | 0.00 | 0.51 | 0.51 | 84 | 1014.1 |
| 20260902094715 | 82 | 304 | 3.0 | 7.0 | 0.00 | 0.51 | 0.51 | 85 | 1014.3 |
| 20260902093733 | 81 | 337 | 4.0 | 7.0 | 0.00 | 0.51 | 0.51 | 86 | 1014.2 |
| 20260902092700 | 81 | 309 | 4.0 | 8.0 | 0.00 | 0.51 | 0.51 | 86 | 1014.2 |
| 20260902090556 | 80 | 285 | 1.0 | 6.0 | 1.14 | 0.44 | 0.46 | 87 | 1014.2 |
| 20260902085606 | 80 | 253 | 6.0 | 13.0 | 0.83 | 0.16 | 0.18 | 87 | 1014.1 |
| 20260902084539 | 81 | 192 | 10.0 | 13.0 | 0.96 | 0.00 | 0.02 | 86 | 1014.0 |
| 20260902083535 | 81 | 215 | 9.0 | 11.0 | 0.00 | 0.00 | 0.00 | 85 | 1013.8 |
| 20260902082540 | 81 | 217 | 7.0 | 10.0 | 0.00 | 0.00 | 0.00 | 87 | 1013.9 |
| 20260902081514 | 81 | 209 | 8.0 | 10.0 | 0.00 | 0.00 | 0.00 | 87 | 1014.0 |
| 20260902080458 | 82 | 260 | 6.0 | 9.0 | 0.00 | 0.00 | 0.00 | 87 | 1014.0 |